EW9675 Weather Reports


Display with metric or nautical units.
time (UTC)temp
F
wind
direction
speed
MPH
gust
MPH
rain 1hr
in
rain 24hr
in
rain mn
in
humidity
%
barometer
mb
20260901170503 57 249 4.0 6.0 0.00 0.27 0.00 91 1015.5
20260901170003 57 250 4.0 6.0 0.00 0.27 0.00 91 1015.6
20260901165504 57 250 4.0 6.0 0.00 0.27 0.00 91 1015.6
20260901165004 57 247 3.0 8.0 0.00 0.27 0.00 91 1015.6
20260901164504 57 243 3.0 8.0 0.00 0.27 0.00 91 1015.6
20260901164004 57 229 4.0 6.0 0.00 0.27 0.00 91 1015.5
20260901163504 57 223 4.0 8.0 0.00 0.27 0.00 91 1015.5
20260901163025 57 226 3.0 8.0 0.00 0.27 0.00 91 1015.6
20260901162504 57 231 3.0 6.0 0.00 0.27 0.00 91 1015.5
20260901162004 58 222 3.0 6.0 0.00 0.27 0.00 91 1015.5
20260901161525 58 242 4.0 8.0 0.00 0.27 0.00 91 1015.6
20260901161025 58 267 5.0 8.0 0.00 0.27 0.00 91 1015.6
20260901160525 58 289 4.0 9.0 0.00 0.27 0.00 91 1015.7
20260901160004 58 300 3.0 9.0 0.00 0.27 0.00 91 1015.7
20260901155504 58 330 3.0 6.0 0.00 0.27 0.00 91 1015.6
20260901155004 58 355 3.0 5.0 0.00 0.27 0.00 90 1015.6
20260901154504 58 355 2.0 5.0 0.00 0.27 0.00 90 1015.5
20260901154004 58 355 1.0 5.0 0.00 0.27 0.00 90 1015.5
20260901153504 58 355 1.0 5.0 0.00 0.27 0.00 90 1015.5
20260901153004 58 355 1.0 5.0 0.00 0.27 0.00 90 1015.4
20260901152504 58 355 1.0 5.0 0.00 0.27 0.00 90 1015.4
20260901152004 58 355 1.0 5.0 0.00 0.27 0.00 90 1015.5
20260901151504 58 355 1.0 5.0 0.00 0.27 0.00 90 1015.4
20260901151004 58 355 1.0 4.0 0.00 0.27 0.00 90 1015.4
20260901150504 58 355 0.0 5.0 0.00 0.27 0.00 90 1015.5
20260901150025 58 355 1.0 5.0 0.00 0.27 0.00 90 1015.6
20260901145525 58 355 1.0 5.0 0.00 0.27 0.00 90 1015.5
20260901145004 58 355 1.0 5.0 0.01 0.27 0.00 89 1015.5
20260901144504 58 355 2.0 4.0 0.01 0.27 0.00 89 1015.5
20260901144004 58 354 2.0 5.0 0.01 0.27 0.00 89 1015.6
20260901143504 58 341 3.0 5.0 0.01 0.27 0.00 89 1015.6
20260901143006 58 330 3.0 5.0 0.01 0.27 0.00 89 1015.6
20260901142525 58 311 3.0 6.0 0.01 0.27 0.27 89 1015.6
20260901142004 58 292 4.0 8.0 0.01 0.27 0.27 89 1015.6
20260901141504 58 284 4.0 8.0 0.01 0.27 0.27 89 1015.6
20260901141004 58 290 4.0 8.0 0.01 0.27 0.27 89 1015.6
20260901140504 58 294 4.0 6.0 0.01 0.27 0.27 89 1015.6
20260901140025 58 294 3.0 6.0 0.01 0.27 0.27 88 1015.7
20260901135504 58 288 2.0 6.0 0.01 0.27 0.27 88 1015.7
20260901135004 58 279 1.0 5.0 0.00 0.26 0.26 88 1015.6
20260901134504 58 276 1.0 5.0 0.00 0.26 0.26 88 1015.7
20260901134004 59 272 1.0 5.0 0.00 0.26 0.26 88 1015.6
20260901133504 59 262 1.0 5.0 0.00 0.26 0.26 88 1015.7
20260901133004 59 262 1.0 5.0 0.00 0.26 0.26 88 1015.7
20260901132525 59 271 2.0 5.0 0.00 0.26 0.26 88 1015.7
20260901132004 59 267 2.0 5.0 0.00 0.26 0.26 88 1015.7
20260901131525 59 267 2.0 5.0 0.00 0.26 0.26 87 1015.7
20260901131025 59 275 1.0 5.0 0.00 0.26 0.26 87 1015.7
20260901130504 59 284 1.0 4.0 0.00 0.26 0.26 87 1015.7
20260901130004 59 267 1.0 5.0 0.00 0.26 0.26 87 1015.7
20260901125525 59 259 1.0 5.0 0.00 0.26 0.26 87 1015.6
20260901125004 59 243 1.0 5.0 0.00 0.26 0.26 87 1015.7
20260901124504 59 243 0.0 5.0 0.00 0.26 0.26 87 1015.8
20260901124004 59 240 0.0 3.0 0.00 0.26 0.26 87 1015.8
20260901123504 59 231 0.0 3.0 0.00 0.26 0.26 87 1015.8
20260901123025 59 235 0.0 3.0 0.00 0.26 0.26 87 1015.9
20260901122503 59 0 0.0 0.0 0.00 0.26 0.26 87 1015.8
20260901122004 59 0 0.0 0.0 0.00 0.26 0.26 87 1015.9
20260901121504 59 0 0.0 0.0 0.00 0.26 0.26 87 1015.9
20260901121004 59 0 0.0 0.0 0.00 0.26 0.26 86 1015.9
20260901120503 59 0 0.0 0.0 0.00 0.26 0.26 86 1015.8
20260901120004 59 0 0.0 0.0 0.00 0.26 0.26 86 1015.8
20260901115504 59 0 0.0 0.0 0.00 0.26 0.26 86 1015.8
20260901115004 59 0 0.0 0.0 0.00 0.26 0.26 86 1015.8
20260901114504 59 0 0.0 0.0 0.00 0.26 0.26 85 1015.8
20260901114025 59 0 0.0 0.0 0.00 0.26 0.26 85 1015.8
20260901113503 59 0 0.0 0.0 0.00 0.26 0.26 85 1015.7
20260901113004 59 0 1.0 5.0 0.00 0.26 0.26 85 1015.7
20260901112503 59 266 1.0 5.0 0.00 0.26 0.26 85 1015.7
20260901112003 59 265 1.0 5.0 0.00 0.26 0.26 85 1015.7
20260901111505 59 263 2.0 5.0 0.00 0.26 0.26 85 1015.7
20260901111004 60 253 2.0 5.0 0.00 0.26 0.26 85 1015.6
20260901110503 59 253 2.0 6.0 0.00 0.26 0.26 85 1015.6
20260901110024 60 248 2.0 6.0 0.00 0.26 0.26 85 1015.6
20260901105503 60 246 4.0 8.0 0.00 0.26 0.26 85 1015.6
20260901105003 59 246 4.0 8.0 0.00 0.26 0.26 85 1015.7
20260901104504 60 240 4.0 8.0 0.00 0.26 0.26 85 1015.6
20260901104004 60 236 5.0 8.0 0.00 0.26 0.26 84 1015.5
20260901103503 60 233 4.0 9.0 0.00 0.26 0.26 84 1015.5
20260901103004 60 221 4.0 9.0 0.00 0.26 0.26 84 1015.6
20260901102504 60 228 3.0 9.0 0.00 0.26 0.26 83 1015.5
20260901102004 60 269 2.0 8.0 0.00 0.26 0.26 82 1015.3
20260901101503 60 299 2.0 6.0 0.00 0.26 0.26 82 1015.2
20260901101003 60 335 4.0 6.0 0.00 0.26 0.26 81 1015.0
20260901100503 61 351 5.0 8.0 0.00 0.26 0.26 81 1014.9
20260901100024 61 357 6.0 10.0 0.00 0.26 0.26 81 1014.7
20260901095504 61 1 6.0 10.0 0.00 0.26 0.26 81 1014.7
20260901095024 61 358 7.0 10.0 0.00 0.26 0.26 80 1014.6
20260901094504 61 357 7.0 11.0 0.00 0.26 0.26 80 1014.6
20260901094003 61 356 8.0 11.0 0.00 0.26 0.26 80 1014.5
20260901093503 61 354 9.0 11.0 0.00 0.26 0.26 80 1014.4
20260901093003 61 358 10.0 17.0 0.00 0.26 0.26 80 1014.3
20260901092503 60 10 10.0 18.0 0.00 0.26 0.26 80 1014.1
20260901092024 60 15 10.0 18.0 0.00 0.26 0.26 80 1014.0
20260901091503 60 13 10.0 17.0 0.00 0.26 0.26 81 1013.9
20260901091003 60 16 11.0 15.0 0.02 0.26 0.26 81 1013.8
20260901090503 60 19 11.0 18.0 0.02 0.26 0.26 81 1013.9
20260901090004 60 25 11.0 18.0 0.02 0.26 0.26 82 1013.8
20260901085503 60 20 11.0 18.0 0.02 0.26 0.26 82 1013.9
20260901085025 60 15 11.0 19.0 0.02 0.26 0.26 83 1014.0
20260901084503 60 18 12.0 19.0 0.03 0.26 0.26 84 1013.9
20260901084024 60 15 12.0 19.0 0.03 0.26 0.26 84 1013.9
20260901083504 60 17 11.0 20.0 0.03 0.26 0.26 85 1013.9
20260901083003 60 21 9.0 20.0 0.03 0.26 0.26 85 1013.8
20260901082503 59 21 7.0 19.0 0.04 0.26 0.26 86 1014.1
20260901082004 59 22 5.0 13.0 0.06 0.26 0.26 87 1014.0
20260901081503 59 24 3.0 11.0 0.06 0.26 0.26 87 1014.3
20260901081003 59 44 3.0 8.0 0.07 0.24 0.24 87 1014.3
20260901080503 59 86 4.0 6.0 0.09 0.24 0.24 87 1014.3
20260901080003 59 102 5.0 9.0 0.10 0.24 0.24 87 1014.1
20260901075504 59 86 6.0 11.0 0.12 0.24 0.24 87 1013.9
20260901075004 59 61 6.0 11.0 0.17 0.24 0.24 86 1013.7
20260901074504 59 75 7.0 9.0 0.20 0.23 0.23 86 1013.9
20260901074004 59 104 7.0 11.0 0.20 0.23 0.23 86 1014.0
20260901073504 59 119 7.0 11.0 0.23 0.23 0.23 86 1014.0
20260901073004 59 101 7.0 14.0 0.23 0.23 0.23 86 1013.9
20260901072504 59 65 7.0 14.0 0.22 0.22 0.22 85 1013.5
20260901072004 59 67 6.0 13.0 0.20 0.20 0.20 85 1013.9
20260901071504 60 77 4.0 11.0 0.20 0.20 0.20 84 1014.6
20260901071004 60 85 3.0 6.0 0.17 0.17 0.17 83 1014.9
20260901070504 60 164 4.0 9.0 0.15 0.15 0.15 83 1015.1
20260901070004 60 173 5.0 9.0 0.13 0.13 0.13 82 1015.2
20260901065525 61 196 7.0 13.0 0.12 0.12 0.12 81 1015.3
20260901065004 61 211 7.0 14.0 0.07 0.07 0.07 80 1015.8
20260901064504 61 203 7.0 14.0 0.03 0.03 0.03 79 1015.5
20260901064004 62 191 8.0 11.0 0.02 0.02 0.02 78 1015.4
20260901063504 63 201 9.0 15.0 0.00 0.00 0.00 76 1015.6
20260901063004 63 211 11.0 17.0 0.00 0.00 0.00 74 1015.7
20260901062504 64 217 14.0 20.0 0.00 0.00 0.00 72 1015.5
20260901062004 64 217 16.0 29.0 0.00 0.00 0.00 70 1015.4
20260901061504 66 229 18.0 30.0 0.00 0.00 0.00 68 1015.3
20260901061004 67 245 18.0 33.0 0.00 0.00 0.00 63 1015.3
20260901060504 68 249 18.0 33.0 0.00 0.00 0.00 60 1015.3
20260901060004 70 262 17.0 33.0 0.00 0.00 0.00 56 1015.0
20260901055504 70 278 17.0 34.0 0.00 0.00 0.00 53 1014.6
20260901055004 70 281 15.0 34.0 0.00 0.00 0.00 54 1014.7
20260901054504 70 287 12.0 29.0 0.00 0.00 0.00 54 1014.5
20260901054004 70 292 9.0 27.0 0.00 0.00 0.00 55 1014.4
20260901053504 70 286 9.0 17.0 0.00 0.00 0.00 58 1014.3
20260901053004 70 285 8.0 14.0 0.00 0.00 0.00 58 1014.2
20260901052504 70 305 8.0 19.0 0.00 0.00 0.00 58 1014.2
20260901052004 70 317 8.0 19.0 0.00 0.00 0.00 59 1014.1
20260901051525 70 312 8.0 14.0 0.00 0.00 0.00 60 1014.1
20260901051004 70 316 9.0 18.0 0.00 0.00 0.00 60 1014.1
20260901050504 70 329 9.0 18.0 0.00 0.00 0.00 60 1014.0
20260901050004 70 323 10.0 17.0 0.00 0.00 0.00 60 1014.1
20260901045504 70 310 11.0 19.0 0.00 0.00 0.00 60 1014.3
20260901045004 70 323 11.0 19.0 0.00 0.00 0.00 58 1014.2
20260901044506 70 325 11.0 18.0 0.00 0.00 0.00 58 1014.3
20260901044004 70 324 11.0 17.0 0.00 0.00 0.00 57 1014.3
20260901043504 70 326 11.0 18.0 0.00 0.00 0.00 58 1014.2
20260901043004 70 326 12.0 19.0 0.00 0.00 0.00 58 1014.2
20260901042504 70 323 12.0 23.0 0.00 0.00 0.00 57 1014.3
20260901042004 70 318 12.0 23.0 0.00 0.00 0.00 57 1014.3
20260901041504 70 321 11.0 23.0 0.00 0.00 0.00 56 1014.3
20260901041004 70 323 11.0 23.0 0.00 0.00 0.00 57 1014.4
20260901040504 70 323 11.0 23.0 0.00 0.00 0.00 56 1014.5
20260901040004 70 326 11.0 20.0 0.00 0.00 0.00 56 1014.6
20260901035504 70 324 11.0 20.0 0.00 0.00 0.00 56 1014.7
20260901035025 70 329 11.0 20.0 0.00 0.00 0.00 55 1014.6
20260901034504 70 337 12.0 19.0 0.00 0.00 0.00 55 1014.7
20260901034004 70 333 13.0 20.0 0.00 0.00 0.00 55 1014.7
20260901033503 70 328 13.0 23.0 0.00 0.00 0.00 54 1014.8
20260901033004 70 333 13.0 25.0 0.00 0.00 0.00 54 1015.2
20260901032504 70 334 13.0 25.0 0.00 0.00 0.00 55 1015.1
20260901032004 70 330 13.0 20.0 0.00 0.00 0.00 55 1015.3
20260901031504 70 327 13.0 20.0 0.00 0.00 0.00 54 1015.4
20260901031003 70 321 14.0 25.0 0.00 0.00 0.00 54 1015.6
20260901030504 70 332 15.0 27.0 0.00 0.00 0.00 53 1015.5
20260901030003 70 345 15.0 27.0 0.00 0.00 0.00 53 1015.5
20260901025504 71 352 14.0 30.0 0.00 0.00 0.00 54 1015.4
20260901025003 70 354 12.0 30.0 0.00 0.00 0.00 53 1015.6
20260901024504 70 355 12.0 27.0 0.00 0.00 0.00 55 1015.7
20260901024004 69 349 11.0 23.0 0.00 0.00 0.00 55 1015.8
20260901023504 68 342 11.0 23.0 0.00 0.00 0.00 56 1016.0
20260901023003 68 341 10.0 19.0 0.00 0.00 0.00 56 1016.1
20260901022503 68 338 9.0 17.0 0.00 0.00 0.00 58 1016.3
20260901022003 68 335 9.0 17.0 0.00 0.00 0.00 57 1016.6
20260901021524 68 339 9.0 17.0 0.00 0.00 0.00 58 1016.6
20260901021025 68 347 10.0 18.0 0.00 0.00 0.00 58 1016.5
20260901020525 67 350 10.0 18.0 0.00 0.00 0.00 57 1016.5
20260901020003 67 353 11.0 18.0 0.00 0.00 0.00 58 1016.4
20260901015503 67 360 11.0 18.0 0.00 0.00 0.00 57 1016.4
20260901015004 68 1 11.0 19.0 0.00 0.00 0.00 57 1016.3
20260901014503 68 356 12.0 19.0 0.00 0.00 0.00 56 1016.4
20260901014004 68 351 13.0 20.0 0.00 0.00 0.00 56 1016.7
20260901013503 68 348 13.0 20.0 0.00 0.00 0.00 55 1016.8
20260901013003 68 341 12.0 20.0 0.00 0.00 0.00 55 1017.0
20260901012503 68 340 11.0 20.0 0.00 0.00 0.00 56 1017.1
20260901012004 68 341 11.0 20.0 0.00 0.00 0.00 56 1017.2
20260901011504 68 341 11.0 18.0 0.00 0.00 0.00 57 1017.2
20260901011004 68 348 12.0 24.0 0.00 0.00 0.00 58 1017.2
20260901010525 68 348 12.0 24.0 0.00 0.00 0.00 56 1017.3
20260901010004 67 346 11.0 18.0 0.00 0.00 0.00 57 1017.2
20260901005503 67 348 11.0 23.0 0.00 0.00 0.00 58 1017.2
20260901005025 67 349 11.0 23.0 0.00 0.00 0.00 57 1017.3
20260901004503 67 352 11.0 19.0 0.00 0.00 0.00 57 1017.4
20260901004003 67 351 11.0 19.0 0.00 0.00 0.00 55 1017.2
20260901003504 67 356 11.0 19.0 0.00 0.00 0.00 56 1017.3
20260901003025 68 1 10.0 19.0 0.00 0.00 0.00 56 1017.3
20260901002504 68 3 11.0 17.0 0.00 0.00 0.00 55 1017.5
20260901002024 68 4 11.0 19.0 0.00 0.00 0.00 56 1017.5
20260901001525 68 4 10.0 20.0 0.00 0.00 0.00 55 1017.5
20260901001003 68 3 10.0 20.0 0.00 0.00 0.00 55 1017.6
20260901000503 68 5 10.0 17.0 0.00 0.00 0.00 56 1017.6
20260901000003 67 9 11.0 19.0 0.00 0.00 0.00 56 1017.6
20260831235503 66 7 11.0 19.0 0.00 0.00 0.00 56 1017.7
20260831235003 65 5 11.0 18.0 0.00 0.00 0.00 57 1017.7
20260831234504 65 6 12.0 23.0 0.00 0.00 0.00 56 1017.8
20260831234025 65 5 13.0 23.0 0.00 0.00 0.00 56 1017.7
20260831233525 65 7 13.0 20.0 0.00 0.00 0.00 56 1017.7
20260831233004 65 10 13.0 27.0 0.00 0.00 0.00 56 1017.7
20260831232503 65 7 13.0 27.0 0.00 0.00 0.00 55 1017.7
20260831232003 65 7 13.0 25.0 0.00 0.00 0.00 55 1017.8
20260831231524 65 9 13.0 25.0 0.00 0.00 0.00 54 1017.7
20260831231003 65 13 13.0 24.0 0.00 0.00 0.00 54 1017.8
20260831230524 65 12 12.0 27.0 0.00 0.00 0.00 54 1017.8
20260831230004 65 13 13.0 28.0 0.00 0.00 0.00 54 1017.7
20260831225504 65 15 14.0 28.0 0.00 0.00 0.00 54 1017.7
20260831225003 65 15 13.0 24.0 0.00 0.00 0.00 54 1017.7
20260831224504 64 16 13.0 24.0 0.00 0.00 0.00 55 1017.8
20260831224003 64 18 13.0 19.0 0.00 0.00 0.00 56 1018.0
20260831223504 64 15 13.0 19.0 0.00 0.00 0.00 56 1018.1
20260831223004 64 8 13.0 23.0 0.00 0.00 0.00 56 1018.3
20260831222503 64 5 11.0 24.0 0.00 0.00 0.00 55 1018.3
20260831222003 64 7 11.0 24.0 0.00 0.00 0.00 56 1018.3
20260831221503 64 9 11.0 19.0 0.00 0.00 0.00 56 1018.3
20260831221003 63 6 12.0 19.0 0.00 0.00 0.00 56 1018.3
20260831220503 63 9 12.0 24.0 0.00 0.00 0.00 57 1018.3
20260831220003 62 8 12.0 24.0 0.00 0.00 0.00 58 1018.3
20260831215524 62 7 11.0 20.0 0.00 0.00 0.00 58 1018.2
20260831215004 61 10 10.0 20.0 0.00 0.00 0.00 59 1018.3
20260831214504 61 15 10.0 18.0 0.00 0.00 0.00 59 1018.2
20260831214025 61 17 11.0 18.0 0.00 0.00 0.00 59 1018.2
20260831213525 61 14 12.0 18.0 0.00 0.00 0.00 59 1018.2
20260831213004 61 10 12.0 19.0 0.00 0.00 0.00 58 1018.1
20260831212504 61 9 12.0 19.0 0.00 0.00 0.00 58 1018.2
20260831212004 61 15 11.0 23.0 0.00 0.00 0.00 58 1018.1
20260831211504 61 21 11.0 23.0 0.00 0.00 0.00 58 1018.1
20260831211004 61 19 11.0 19.0 0.00 0.00 0.00 58 1018.1
20260831210504 61 15 11.0 19.0 0.00 0.00 0.00 59 1018.1
20260831210025 61 17 10.0 19.0 0.00 0.00 0.00 59 1018.2
20260831205504 60 23 10.0 17.0 0.00 0.00 0.00 59 1018.2
20260831205004 60 22 10.0 15.0 0.00 0.00 0.00 60 1018.2
20260831204504 60 18 10.0 17.0 0.00 0.00 0.00 59 1018.3
20260831204025 60 14 10.0 17.0 0.00 0.00 0.00 59 1018.3
20260831203504 60 10 10.0 18.0 0.00 0.00 0.00 59 1018.3
20260831203004 60 12 10.0 18.0 0.00 0.00 0.00 60 1018.3
20260831202525 60 14 10.0 19.0 0.00 0.00 0.00 60 1018.3
20260831202004 60 12 11.0 19.0 0.00 0.00 0.00 59 1018.3
20260831201504 60 13 11.0 18.0 0.00 0.00 0.00 59 1018.3
20260831201004 60 12 11.0 19.0 0.00 0.00 0.00 59 1018.4
20260831200504 60 11 10.0 19.0 0.00 0.00 0.00 60 1018.3
20260831200004 60 12 11.0 19.0 0.00 0.00 0.00 60 1018.4
20260831195504 60 13 11.0 20.0 0.00 0.00 0.00 60 1018.3
20260831195025 60 14 11.0 23.0 0.00 0.00 0.00 60 1018.4
20260831194534 60 16 11.0 23.0 0.00 0.00 0.00 60 1018.5
20260831194025 60 22 10.0 24.0 0.00 0.00 0.00 61 1018.5
20260831193504 60 22 11.0 24.0 0.00 0.00 0.00 60 1018.4
20260831193007 60 22 11.0 24.0 0.00 0.00 0.00 61 1018.6
20260831192504 60 23 11.0 24.0 0.00 0.00 0.00 60 1018.5
20260831192004 60 18 11.0 18.0 0.00 0.00 0.00 61 1018.6
20260831191504 60 17 11.0 18.0 0.00 0.00 0.00 60 1018.5
20260831191004 60 14 11.0 19.0 0.00 0.00 0.00 60 1018.6
20260831190504 60 16 12.0 19.0 0.00 0.00 0.00 60 1018.6
20260831190004 60 16 12.0 19.0 0.00 0.00 0.00 60 1018.6
20260831185504 60 14 11.0 23.0 0.00 0.00 0.00 59 1018.6
20260831185004 60 17 11.0 23.0 0.00 0.00 0.00 60 1018.6
20260831184504 60 21 10.0 19.0 0.00 0.00 0.00 60 1018.7
20260831184004 59 21 10.0 17.0 0.00 0.00 0.00 60 1018.8
20260831183504 59 20 10.0 17.0 0.00 0.00 0.00 60 1018.9
20260831183004 60 19 10.0 18.0 0.00 0.00 0.00 59 1019.0
20260831182504 60 17 10.0 18.0 0.00 0.00 0.00 59 1019.0
20260831182004 60 20 11.0 18.0 0.00 0.00 0.00 59 1019.0
20260831181504 60 24 11.0 20.0 0.00 0.00 0.00 59 1019.1
20260831181004 60 27 10.0 20.0 0.00 0.00 0.00 59 1019.1
20260831180504 60 30 11.0 18.0 0.00 0.00 0.00 59 1019.2
20260831180004 60 19 11.0 20.0 0.00 0.00 0.00 58 1019.2
20260831175504 60 11 12.0 20.0 0.00 0.00 0.00 58 1019.3
20260831175004 60 14 13.0 23.0 0.00 0.00 0.00 57 1019.3
20260831174504 61 15 13.0 23.0 0.00 0.00 0.00 57 1019.2
20260831174004 61 14 13.0 27.0 0.00 0.00 0.00 57 1019.2
20260831173504 61 11 13.0 27.0 0.00 0.00 0.00 57 1019.3
20260831173004 60 16 13.0 27.0 0.00 0.00 0.00 58 1019.4
20260831172504 60 23 12.0 27.0 0.00 0.00 0.00 58 1019.5
20260831172004 60 21 11.0 27.0 0.00 0.00 0.00 58 1019.6
20260831171504 60 19 12.0 19.0 0.00 0.00 0.00 58 1019.7
20260831171025 60 18 12.0 18.0 0.00 0.00 0.00 57 1019.7